Location: Trois-Rivi�res
(46.3500°N, 72.5500°W)
Time: 06:33:20
(UTC-04:00)

Daily predictions for brighter satellites

Satellite Brightness Start Highest point End
(mag) Time Altitude Azimuth Time Altitude Azimuth Time Altitude Azimuth
Okean 3 4.0 20:55:33 10° N 20:59:39 41° ENE 21:03:40 10° SSE
Cosmos 2074 Rocket 4.3 20:56:17 10° SSW 21:02:34 75° W 21:08:51 10° N
Cosmos 1782 3.2 20:59:20 10° NNW 21:03:21 67° W 21:07:22 10° S
PSLV R/B 4.4 21:01:22 10° SE 21:03:51 25° ENE 21:06:21 10° NNE
Cosmos 1674 Rocket 4.0 21:00:56 10° NNW 21:05:23 67° W 21:09:46 10° S
Cosmos 1452 Rocket 3.6 21:00:33 10° S 21:05:42 57° ESE 21:10:53 10° NNE
H-2A R/B 3.9 21:02:55 10° E 21:06:16 17° ENE 21:09:35 10° NNE
ATLAS 5 CENTAUR R/B 4.0 21:02:52 10° WNW 21:08:05 31° WSW 21:13:33 10° S
ARGOS 4.1 21:05:29 10° SE 21:10:08 31° ENE 21:14:49 10° N
USA 186 4.3 21:10:14 10° SSW 21:12:47 22° W 21:15:27 10° NW
Okean 2 Rocket 3.8 21:09:27 10° SSE 21:13:28 35° E 21:17:28 10° NNE
Nadezhda 3 Rocket 4.1 21:10:13 10° N 21:16:37 83° E 21:23:00 10° S
Cosmos 1242 Rocket 3.1 21:16:58 10° N 21:20:31 44° ENE 21:23:49 11° SSE
SPOT 1/Viking Rocket 4.2 21:16:31 10° SE 21:21:23 42° ENE 21:26:18 10° N
Terra 3.7 21:18:29 10° E 21:21:29 17° ENE 21:24:28 10° NNE
Cosmos 1939 Rocket 3.1 21:18:23 10° S 21:22:15 68° WSW 21:26:12 10° NNW
Cosmos 1238 Rocket 2.4 21:20:29 10° N 21:23:43 81° E 21:27:31 10° S
Cosmos 1782 Rocket 3.7 21:19:51 10° S 21:24:12 55° E 21:28:36 10° NNE
Cosmos 1184 Rocket 3.0 21:21:05 10° S 21:24:20 52° E 21:27:37 10° NNE
YAOGAN 6 3.0 21:21:31 11° SE 21:24:39 44° ENE 21:28:03 10° N
Sich 1 Rocket 4.0 21:20:32 10° SSW 21:25:06 71° W 21:29:42 10° N
ISS -3.1 21:21:58 10° SW 21:25:06 48° SSE 21:28:17 10° ENE
Cosmos 1408 2.5 21:23:02 10° S 21:26:41 71° E 21:30:19 10° NNE
DNEPR-1 R/B 3.9 21:25:11 10° NW 21:30:49 89° SW 21:34:51 14° SE
Cosmos 1833 Rocket 3.4 21:25:51 10° NNW 21:31:11 42° NE 21:35:46 14° ESE
SPOT 5 3.1 21:25:56 10° SSE 21:31:15 85° ENE 21:36:39 10° NNW
Cosmos 1850 Rocket 4.1 21:29:57 10° NNW 21:35:16 71° ENE 21:39:56 14° SSE
Cosmos 1975 Rocket 3.0 21:32:07 10° N 21:36:28 85° E 21:40:49 10° S
MetOp-A 4.1 21:31:58 10° SSE 21:37:19 82° ENE 21:42:42 10° NNW
Cosmos 1825 2.2 21:33:31 10° S 21:37:20 83° W 21:41:12 10° N
Cosmos 2278 Rocket 2.2 21:31:48 10° SSW 21:37:28 78° ESE 21:43:10 10° NNE
Cosmos 1844 Rocket 3.5 21:32:29 10° SW 21:38:03 56° WNW 21:43:37 10° NNE
USA 229 DEB 4.0 21:32:59 10° NW 21:40:03 67° NE 21:46:06 15° SE
USA 229 4.0 21:33:05 10° NW 21:40:10 66° NE 21:46:12 15° SE
Cosmos 2084 3.2 21:36:19 10° SW 21:40:10 84° NW 21:44:02 10° NE
BREEZE-M DEB 4.3 21:38:25 10° WSW 21:42:47 75° SSE 21:45:36 10° ENE
Cosmos 1844 4.2 21:37:19 10° SW 21:43:04 68° WNW 21:48:53 10° NNE
Cosmos 2341 Rocket 4.1 21:40:15 10° S 21:46:34 86° W 21:52:52 10° N
Cosmos 1378 Rocket 4.4 21:42:56 10° NNW 21:47:06 47° W 21:51:14 10° SSW
COS B Rocket 4.0 21:43:09 10° N 21:47:08 52° W 21:50:43 10° SSW
Cosmos 1536 Rocket 4.3 21:45:03 10° N 21:49:17 39° ENE 21:52:00 19° SE
Intercosmos 25 2.9 21:47:58 11° S 21:51:11 64° E 21:54:20 10° NNE
Cosmos 2082 Rocket 2.2 21:49:04 10° NNW 21:54:48 75° ENE 21:58:57 19° SE
Cosmos 1741 Rocket 4.0 21:51:00 10° NNW 21:56:15 81° WSW 22:00:21 17° SSE
deb Chang Zheng 4 4.5 21:52:25 10° N 21:56:44 53° WNW 22:01:02 10° SSW
SL-8 Rocket 4.0 21:50:46 10° S 21:56:58 70° E 22:03:11 10° NNE
Timation 2 Rocket 4.1 21:53:24 10° NNW 21:59:20 66° WSW 22:04:13 16° SSE
Meteor 1-14 Rocket 4.2 21:54:11 10° S 21:59:47 65° E 22:05:18 10° NNE
Cosmos 1812 3.7 21:59:06 10° N 22:02:37 32° ENE 22:04:10 24° ESE
USA 245 3.4 22:05:04 21° S 22:07:20 72° WSW 22:11:41 10° NNW
Cosmos 2297 3.6 22:08:02 10° SSW 22:13:45 78° ESE 22:19:30 10° NNE
BREEZE-M DEB (TANK) 3.8 22:12:04 10° W 22:15:14 66° N 22:24:43 10° ENE
H-2A R/B 4.1 22:14:12 10° SSW 22:17:35 23° W 22:20:57 10° NW
Cosmos 2151 Rocket 3.5 22:16:23 19° S 22:19:38 78° E 22:24:11 10° NNE
IGS 5A 4.0 22:17:59 28° ESE 22:19:42 43° ENE 22:23:40 10° N
CZ-3C R/B 4.5 22:17:37 10° SW 22:19:58 11° SSW 22:21:49 10° SSW
NOAA 11 4.3 22:15:50 18° S 22:19:59 75° WSW 22:25:31 10° NNW
CZ-4 R/B 3.7 22:15:37 10° NNE 22:20:18 69° ESE 22:23:30 20° S
APEX 4.0 22:20:24 10° SW 22:24:30 70° WNW 22:29:57 10° NNE
Cosmos 864 Rocket 4.4 22:21:57 15° S 22:27:04 81° E 22:33:16 10° N
NOSS 3-1 (C) 4.3 22:20:42 10° NW 22:27:57 59° NE 22:33:40 20° ESE
BREEZE-M DEB (TANK) 2.6 22:31:16 10° WNW 22:33:20 45° N 22:37:19 10° E
Gbstr 26 Del rocket 3.2 22:28:36 10° WNW 22:33:49 80° NNE 22:35:56 30° ESE
Cosmos 1300 Rocket 3.9 22:33:37 35° SE 22:34:58 47° E 22:39:16 10° NNE
SL-8 R/B 4.0 22:32:05 10° W 22:36:54 68° N 22:41:14 13° E
Cosmos 1486 Rocket 4.3 22:32:03 10° NNW 22:37:20 58° ENE 22:39:43 31° SE
Cosmos 2366 rocket 4.1 22:32:20 13° S 22:38:01 81° W 22:44:25 10° N
USA 234 3.7 22:33:18 10° ENE 22:39:16 36° SE 22:43:02 20° S
Okean 1 Rocket 3.5 22:38:39 37° SE 22:39:51 46° E 22:44:08 10° NNE
CZ-4C R/B 3.5 22:41:21 35° S 22:42:54 69° WSW 22:47:04 10° NNW
Landsat 7 4.0 22:40:33 29° S 22:42:58 70° WSW 22:47:44 10° NNW
H-2A R/B 2.1 22:42:13 29° S 22:45:04 82° WSW 22:50:23 10° NNW
Cosmos 2369 Rocket 3.5 22:45:04 21° ESE 22:45:09 21° E 22:49:16 10° NE
CZ-4B R/B 4.1 22:40:29 10° N 22:45:20 55° WNW 22:50:02 10° SW
Okean 1-7 Rocket 3.6 22:45:37 10° N 22:50:07 68° E 22:51:25 44° SE
ARGOS 4.1 22:46:31 17° SSW 22:50:15 40° W 22:55:18 10° NNW
Timation 1 Rocket 4.2 22:46:57 15° SSW 22:52:02 78° ESE 22:58:04 10° NNE
Cosmos 1400 Rocket 3.8 22:54:43 31° E 22:54:43 31° E 22:58:24 10° NNE
Cosmos 1536 4.0 22:56:52 27° E 22:56:52 27° E 23:00:05 10° NNE
Terra 1.9 22:56:47 36° S 22:58:41 69° WSW 23:03:27 10° NNW
Cosmos 1633 4.0 23:00:04 25° ENE 23:00:04 25° ENE 23:02:40 10° NNE
ISS -2.0 22:58:29 10° W 23:01:36 41° NNW 23:04:43 10° ENE
Meteor 1-20 Rocket 4.3 23:01:01 23° SSW 23:04:36 73° WNW 23:10:08 10° N
Cosmos 1302 Rocket 4.1 23:06:46 43° SSE 23:08:14 59° ESE 23:13:27 10° NNE
Cosmos 1000 Rocket 4.4 23:04:11 10° N 23:10:28 84° E 23:13:08 37° SSE
Spot 4 4.0 23:11:31 41° S 23:13:07 67° WSW 23:17:58 10° NNW
Cosmos 1833 Rocket 3.8 23:10:01 10° NW 23:15:00 34° WSW 23:17:28 23° SSW
CARTOSAT-1 4.5 23:15:43 31° SW 23:17:04 40° W 23:21:10 10° NNW
Okean 1 4.3 23:13:41 10° NNW 23:17:32 41° W 23:18:36 34° SW
Cosmos 1943 Rocket 4.0 23:18:11 16° E 23:18:11 16° E 23:20:53 10° ENE
Spot 2 3.9 23:14:26 10° NNE 23:18:48 86° ESE 23:19:31 61° S
Cosmos 2239 Rocket 4.5 23:16:19 38° SSE 23:18:50 71° E 23:25:08 10° NNE
Lacrosse 5 1.9 23:25:05 55° SSE 23:25:33 57° SE 23:30:33 10° ENE
SAR-Lupe-2 4.4 23:28:49 41° WSW 23:28:55 41° W 23:32:20 10° NNW
CZ-4C R/B 4.5 23:30:16 29° ENE 23:30:16 29° ENE 23:33:30 10° N
Iridium 4 Rocket 3.8 23:27:21 10° N 23:33:17 87° E 23:35:10 46° S
ASTEX 1 3.9 23:31:28 10° N 23:36:18 54° W 23:38:12 34° SW
Cosmos 2082 Rocket 4.2 23:34:31 10° WNW 23:38:13 18° W 23:40:49 13° SW
Cosmos 1602 3.9 23:38:27 65° W 23:38:39 66° W 23:42:34 10° N
Cosmos 1892 Rocket 3.4 23:36:56 10° N 23:41:20 77° ENE 23:41:36 74° ESE
Cosmos 2084 Rocket 3.3 23:39:33 10° NW 23:43:25 72° NE 23:43:25 72° NE
Cosmos 1503 Rocket 4.0 23:40:12 10° NNW 23:45:27 76° WSW 23:46:27 57° S
Meteor 2-4 Rocket 3.6 23:41:19 10° NNW 23:46:47 82° W 23:48:06 54° S
NOSS 3-1 (A) 4.0 23:41:58 10° NW 23:49:28 73° SW 23:52:37 41° SSE
Genesis I 3.4 23:52:50 68° WNW 23:53:02 70° NW 23:57:04 10° NNE
Cosmos 2263 4.3 23:53:34 51° SE 23:54:01 52° ESE 23:59:30 10° NE
CZ-4B R/B 3.0 23:57:11 27° NE 23:57:11 27° NE 23:59:11 10° N
